Location: Carreg Coch
(53.2167°N, 4.5333°W)
Time: 15:02:01
(UTC+00:00)

Daily predictions for brighter satellites

Satellite Brightness Start Highest point End
(mag) Time Altitude Azimuth Time Altitude Azimuth Time Altitude Azimuth
ATLAS 2AS CENTAUR R/B 3.2 17:04:47 10° SSW 17:12:38 67° SE 17:20:21 10° NE
MOS 1-B 4.4 17:09:01 10° SSE 17:14:50 89° ENE 17:20:40 10° NNW
SL-14 R/B 4.3 17:11:39 10° SE 17:14:52 25° E 17:18:08 10° NNE
Cosmos 2082 3.8 17:10:19 10° SSW 17:16:04 88° ESE 17:21:48 10° NNE
Cosmos 773 Rocket 4.2 17:13:02 10° NNW 17:18:04 48° ENE 17:23:02 10° SE
ATLAS 5 CENTAUR R/B 2.7 17:17:04 10° S 17:20:24 25° ESE 17:24:05 10° ENE
Meteor 2-5 Rocket 4.3 17:15:38 10° SSE 17:20:39 36° E 17:25:40 10° NNE
CZ-4B R/B 3.3 17:19:40 10° ENE 17:21:29 14° E 17:23:17 10° ESE
SeaSat 1 3.0 17:19:10 10° NNE 17:24:02 59° NW 17:28:52 10° SW
Cosmos 1726 Rocket 4.3 17:21:08 10° N 17:25:03 31° ENE 17:28:58 10° SE
Landsat 5 3.5 17:21:36 10° NNE 17:25:32 52° E 17:29:20 10° S
NOAA 12 4.1 17:25:21 10° SSE 17:30:35 88° E 17:35:53 10° NNW
CZ-4C R/B 2.7 17:33:39 10° NNE 17:36:49 69° ESE 17:39:57 10° S
Cosmos 2279 Rocket 4.1 17:30:56 10° N 17:37:05 53° ENE 17:43:11 10° SSE
Cosmos 2263 Rocket 2.5 17:33:38 10° S 17:39:03 48° ESE 17:44:30 10° NE
Cosmos 1953 4.1 17:35:29 10° NNW 17:39:09 36° W 17:42:48 10° SSW
CORIOLIS 4.2 17:35:11 10° SSE 17:40:36 89° ENE 17:46:02 10° NNW
Cosmos 1455 3.7 17:38:07 10° NNE 17:40:38 17° ENE 17:43:09 10° ESE
NOAA 11 4.2 17:36:47 10° SSE 17:42:18 84° ENE 17:47:51 10° NNW
COSMO-SKYMED 1 3.6 17:38:59 10° NE 17:42:37 25° E 17:46:12 10° SSE
USA 234 3.4 17:37:39 10° E 17:44:07 65° N 17:50:37 10° WNW
Cosmos 1300 2.6 17:40:47 10° N 17:44:36 65° ENE 17:48:23 10° SSE
Cosmos 1536 Rocket 3.6 17:40:17 10° S 17:44:41 87° WNW 17:49:09 10° N
SMAP 3.4 17:40:06 10° S 17:44:45 73° WSW 17:49:26 10° NNW
COSMOS 2455 4.0 17:41:19 10° SSE 17:45:51 23° ESE 17:49:35 13° ENE
Cosmos 1538 Rocket 4.1 17:43:28 10° NNW 17:48:32 50° ENE 17:53:33 10° SE
Cosmos 1939 Rocket 2.9 17:44:30 10° SSE 17:48:33 57° ENE 17:52:35 10° N
Cosmos 1634 Rocket 4.1 17:43:19 10° N 17:49:35 89° W 17:55:52 10° S
Okean-O 3.4 17:48:14 10° ESE 17:52:06 30° ENE 17:55:58 10° N
ATLAS 3B R/B 3.8 17:46:00 10° NW 17:52:37 49° WSW 17:59:29 10° SSE
Cosmos 1943 3.7 17:50:05 10° NW 17:55:43 66° WSW 18:01:19 10° SSE
MOS 1 Rocket 4.1 17:52:14 10° NE 17:55:54 25° E 17:59:28 10° SSE
Okean O Rocket 1.9 17:52:17 10° S 17:56:44 72° WSW 18:01:11 10° NNW
OPS 8737 4.2 17:55:03 10° NW 17:58:02 87° NE 18:01:46 10° SE
ARGOS 3.9 17:54:05 10° ESE 17:58:37 29° ENE 18:03:10 10° N
Meteor 1-24 Rocket 3.7 17:53:33 10° S 17:58:44 54° E 18:03:54 10° NNE
CZ-4 R/B 2.0 17:55:10 10° SE 17:58:51 33° ENE 18:02:31 10° N
Cosmos 1315 Rocket 2.8 17:55:02 10° NNW 17:59:01 84° WSW 18:03:00 10° S
Cosmos 1025 Rocket 4.2 17:55:22 10° SW 17:59:31 44° WNW 18:03:44 10° N
Cosmos 1354 Rocket 4.0 17:57:01 10° SSW 18:02:19 70° ESE 18:07:39 10° NNE
Feng Yun 1-1 Rocket 4.1 17:57:53 10° SSE 18:03:17 73° ENE 18:08:51 10° NNW
ERS-2 3.4 18:03:35 20° ENE 18:04:28 22° E 18:07:21 10° SSE
Cosmos 968 Rocket 3.9 18:00:40 10° SW 18:05:43 61° WNW 18:10:50 10° NNE
H-2A R/B 4.0 18:02:40 10° SSW 18:06:27 39° W 18:10:24 10° NNW
Cosmos 2082 Rocket 3.8 18:04:00 10° NNW 18:07:49 18° NNE 18:09:49 15° NE
Cosmos 1833 Rocket 4.0 18:04:07 10° NNW 18:08:27 22° NNE 18:10:32 18° ENE
BREEZE-M DEB (TANK) 2.8 18:07:49 10° WSW 18:10:07 35° S 18:11:06 22° ESE
Cosmos 1674 4.4 18:07:55 10° SW 18:11:28 34° WNW 18:15:02 10° N
Cosmos 1606 Rocket 3.7 18:11:17 10° NNW 18:15:40 78° W 18:20:03 10° S
H-2A R/B 2.3 18:12:50 10° NNE 18:17:20 74° WNW 18:21:44 10° SSW
USA-17 4.1 18:16:02 10° SW 18:19:30 87° SE 18:20:52 31° NE
Cosmos 2227 4.2 18:14:02 10° SSW 18:19:41 84° ESE 18:24:56 13° NNE
YAOGAN 1 2.8 18:16:00 10° SE 18:20:09 47° ENE 18:24:20 10° N
Cosmos 1892 Rocket 3.7 18:16:40 10° S 18:20:52 50° E 18:25:05 10° NNE
IRS-1C Rocket 4.0 18:18:11 10° SSE 18:23:26 79° ENE 18:28:43 10° NNW
NOSS 3-1 (C) 4.1 18:17:17 10° NW 18:24:05 56° NNE 18:30:09 18° ESE
Cosmos 2227 Rocket 3.8 18:19:52 10° W 18:24:43 28° NW 18:29:35 10° NNE
NOSS 7 (H) 4.1 18:22:16 10° SW 18:25:24 78° NW 18:26:27 36° NE
CZ-4C R/B 2.7 18:23:53 10° WSW 18:29:09 59° NNW 18:33:51 18° NE
Cosmos 1812 Rocket 4.4 18:26:22 10° N 18:29:55 28° ENE 18:29:55 28° ENE
SKYMED 2 3.5 18:26:34 10° NNE 18:30:56 66° ESE 18:35:14 10° S
Cosmos 2228 4.0 18:27:36 10° NNW 18:31:44 49° W 18:35:51 10° S
Lacrosse 5 1.9 18:26:41 10° WNW 18:31:46 80° SSW 18:35:29 18° SE
Cosmos 1844 Rocket 3.4 18:29:09 10° SSE 18:34:04 31° ESE 18:35:27 28° E
Helios 1A Rocket 2.9 18:34:49 10° SSE 18:38:53 58° ENE 18:43:00 10° N
USA 229 DEB 4.0 18:33:34 10° NW 18:40:30 54° NNE 18:44:37 27° E
Nadezhda 4 Rocket 4.0 18:34:30 10° SSE 18:40:34 55° E 18:46:36 10° NNE
USA 229 4.0 18:33:40 10° NW 18:40:36 53° NNE 18:44:41 27° E
SJ 16-02 2.3 18:37:05 10° SSE 18:40:20 29° ESE 18:40:20 29° ESE
Cosmos 1626 3.9 18:37:52 10° SW 18:41:13 32° WNW 18:44:35 10° N
CZ-2C R/B 3.3 18:36:24 10° S 18:41:43 78° WSW 18:47:22 10° NNW
CZ-2D R/B 3.9 18:39:37 10° S 18:43:27 58° W 18:47:15 10° NNW
Cosmos 2058 Rocket 3.2 18:40:27 10° NNW 18:44:57 78° W 18:49:28 10° S
Ariane Rocket 4.3 18:47:26 23° NE 18:47:26 23° NE 18:50:21 10° N
NOSS 3-4 (A) 4.1 18:40:25 10° W 18:46:16 48° NNW 18:50:26 21° NE
NOSS 3-4 (C) 4.1 18:40:31 10° W 18:46:22 48° NNW 18:50:32 21° NE
RESURS DK-1 3.4 18:42:42 10° WSW 18:46:40 43° NW 18:49:17 19° NNE
USA 281 4.1 18:47:26 26° NE 18:48:40 27° NE 18:53:59 10° NNW
USA 267 4.4 18:48:30 21° ESE 18:49:06 21° SE 18:53:54 10° S
Cosmos 2297 Rocket 4.2 18:45:35 10° WNW 18:49:44 20° NNW 18:53:55 10° NNE
CREW DRAGON DEMO-1 DEB 3.3 18:47:05 10° W 18:49:53 48° SSW 18:49:56 48° S
H-2A R/B 1.9 18:45:14 10° SSE 18:50:14 81° ENE 18:55:23 10° NNW
Cosmos 923 Rocket 3.9 18:45:00 10° NNW 18:50:22 70° ENE 18:55:17 12° SE
Meteor 2-1 Rocket 4.1 18:46:53 10° NNW 18:52:33 82° ENE 18:58:05 10° SSE
CZ-4B R/B 2.0 18:51:44 18° N 18:54:03 56° WNW 18:57:20 10° SSW
Meteor 2-10 Rocket 4.0 18:50:12 10° NNW 18:55:46 66° W 19:01:04 10° S
NOSS 3-1 (A) 4.1 18:49:12 10° NW 18:56:02 56° NNE 18:59:43 32° E
SAR-Lupe-4 3.8 18:56:43 50° SSE 18:56:43 50° SSE 18:59:39 10° S
CSL-04 Rocket 3.6 18:52:44 10° SSE 18:58:06 70° ENE 19:03:35 10° NNW
Cosmos 1680 Rocket 3.4 18:52:54 10° NNW 18:58:09 64° ENE 19:00:38 31° SE
Okean 1-7 Rocket 3.5 18:54:00 10° S 18:58:32 79° E 19:01:55 18° NNE
Cosmos 2344 4.1 18:52:16 10° NW 19:00:51 70° NE 19:08:26 24° ESE
Cosmos 158 Rocket 4.0 18:58:10 10° NNW 19:03:31 89° WSW 19:08:55 10° SSE
ATLAS 2AS CENTAUR R/B 3.5 18:56:15 10° WSW 19:04:01 54° NNW 19:08:51 24° NE
ATLAS 5 CENTAUR R/B 1.8 19:00:25 10° WSW 19:04:33 64° NW 19:06:01 40° NNE
Cosmos 1818 4.0 19:00:10 10° S 19:05:13 41° ESE 19:05:20 41° ESE
Meteor 2-13 Rocket 4.3 18:59:40 10° S 19:05:45 76° E 19:11:55 10° NNE
SAR-Lupe-1 4.5 19:08:02 51° S 19:08:02 51° S 19:10:47 10° SSW
Cosmos 1553 Rocket 4.3 19:03:25 10° N 19:09:31 43° ENE 19:09:59 42° E
SL-08 RB Rocket 3.5 19:11:59 65° E 19:12:10 66° ENE 19:16:39 10° N
Cosmos 1626 Rocket 4.1 19:10:03 10° S 19:13:07 42° SSE 19:13:07 42° SSE
PSLV R/B 3.9 19:14:13 48° N 19:15:23 86° WNW 19:19:36 10° SSW
Cosmos 1455 2.7 19:12:51 10° NNW 19:16:36 58° W 19:20:21 10° S
Cosmos 2026 Rocket 4.0 19:12:02 10° SSE 19:17:52 50° E 19:18:42 47° ENE
COSMO-SKYMED 1 3.5 19:14:49 10° N 19:19:00 47° WNW 19:23:09 10° SW
Aureole 3 3.8 19:17:01 10° NNW 19:20:46 50° W 19:21:49 35° SSW
Cosmos 2263 Rocket 3.2 19:17:43 10° WSW 19:23:07 42° NW 19:26:44 20° NNE
MetOp-A 4.3 19:25:38 54° NE 19:25:38 54° NE 19:30:19 10° N
COSMOS 2406 3.3 19:19:45 10° NNW 19:25:26 54° NE 19:25:26 54° NE
USA 234 3.2 19:24:50 47° ESE 19:27:00 86° NNE 19:33:35 10° WNW
Iridium 4 Rocket 3.6 19:22:12 10° N 19:28:03 82° E 19:33:30 10° S
Okean-O 3.9 19:24:16 10° S 19:28:28 41° W 19:32:42 10° NNW
COSMOS 2455 2.8 19:25:03 10° SW 19:31:06 89° WNW 19:32:46 51° NE
CZ-4 R/B 3.2 19:30:13 10° SSW 19:33:54 31° W 19:37:33 10° NNW
MOS 1 Rocket 4.2 19:31:00 15° N 19:34:23 43° WNW 19:38:26 10° SW
Cosmos 2112 Rocket 4.0 19:30:01 10° NNW 19:35:19 82° WSW 19:36:21 58° S
APEX 4.5 19:30:04 10° SSW 19:37:04 88° WNW 19:39:05 47° NNE
ERS-2 3.4 19:38:08 39° WNW 19:38:08 39° WNW 19:41:33 10° SW
ARGOS 3.6 19:33:18 10° S 19:38:35 61° WSW 19:43:56 10° NNW
Cosmos 2195 Rocket 4.4 19:36:55 10° S 19:43:16 84° E 19:49:39 10° NNE
CZ-2C R/B 3.5 19:46:27 38° S 19:46:27 38° S 19:49:51 10° S
Meteor 2-15 4.3 19:43:25 10° N 19:49:37 86° ENE 19:50:36 66° SSE
Cosmos 1627 Rocket 4.3 19:45:11 10° S 19:51:22 86° E 19:57:41 10° NNE
IRS-1A Rocket 4.4 19:52:38 68° NNE 19:52:38 68° NNE 19:57:53 10° NNW
Cosmos 1844 3.7 19:46:51 10° SSW 19:51:52 71° SSW 19:51:52 71° SSW
Cosmos 1833 Rocket 3.0 19:47:47 10° NNW 19:52:16 54° N 19:52:16 54° N
Cosmos 2082 Rocket 3.2 19:47:53 10° NNW 19:51:41 36° N 19:51:41 36° N
Cosmos 1428 Rocket 4.4 19:52:38 10° S 19:58:57 89° E 20:05:19 10° N
Cosmos 1092 Rocket 4.3 20:01:11 10° SSW 20:07:20 65° WNW 20:13:29 10° N
Cosmos 2227 Rocket 4.5 20:07:56 10° NW 20:10:49 14° NNW 20:11:58 13° N
Lacrosse 5 3.6 20:10:08 10° WNW 20:14:12 25° SW 20:14:44 24° SW
NOSS 3-1 (C) 4.3 20:08:08 10° NW 20:15:21 64° SW 20:17:37 48° S
Cosmos 1844 Rocket 3.2 20:12:04 10° SW 20:17:10 57° WNW 20:17:10 57° WNW
CZ-4C R/B 3.5 20:13:32 10° WNW 20:18:53 35° N 20:19:03 35° N
SJ 16-02 3.3 20:15:13 10° SW 20:17:23 25° WSW 20:17:23 25° WSW
USA 229 DEB 4.0 20:24:39 10° NW 20:31:48 65° SW 20:32:06 65° SW
USA 229 4.0 20:24:45 10° NW 20:31:55 66° SW 20:32:09 65° SW
USA 281 3.7 20:34:18 50° NNW 20:34:18 50° NNW 20:39:00 10° NNW
USA 267 4.3 20:35:52 35° SSW 20:35:52 35° SSW 20:39:32 10° SW
CZ-3B R/B 4.3 20:30:25 10° W 20:32:17 24° WSW 20:32:17 24° WSW
NOSS 3-1 (A) 4.2 20:40:06 10° NW 20:47:11 64° WSW 20:47:11 64° WSW
ATLAS 5 CENTAUR R/B 4.2 20:46:09 10° WNW 20:47:33 18° WNW 20:47:33 18° WNW
ATLAS 2AS CENTAUR R/B 3.9 20:49:18 10° WNW 20:56:17 38° N 20:56:17 38° N
USA 234 4.4 21:12:11 38° W 21:12:11 38° W 21:16:40 10° WNW
